CZ-3B DEB, 40169

Orbit data source: Space-Track

CZ-3B DEB, 40169 is space debris originally from a launch on Sat, 04 Sep 2010 UTC launched from the Xichang Space Center, China (XSC). Debris objects in space refer to the collection of defunct objects orbiting the Earth. Examples of debris include non-operational satellites, rocket bodies, and fragments generated from explosions, collisions, or faulty payload assembly.

Loading next visibility...
CZ-3B DEB details
Identifier
40169, 2010-042W
Orbit
Molniya
Last TLE update15 hours ago
Origin
Flag of CNCASC (CN / PRC)
ManufacturerCALT
MissionSpacecraft
Bus & MotorUnknown
MassUnknown
Launch date (UTC)
2010-09-04 (14 years ago)
Launch vehicleUnknown
Launch site
Xichang Space Center, China (XSC)
Object type
Payload
Rocket body
Debris
Shape & HBRUnknown
Radar Cross SectionMedium (>0.1 m² and <1 m²)

Expand to show TLE details & history

TLE from 15 hours ago
0 CZ-3B DEB
1 40169U 10042W   24339.80566332 -.00000047  00000-0  00000+0 0  9992
2 40169  27.1534  12.1026 7196130 171.1007 214.9945  1.94007291 86988
Epoch: 2024-12-04T19:20Z
Definitive object data (Epoch: 2024-12-04T19:20:09.31Z)
Latitude-0.23179°
Longitude7.52175°
Altitude39,055.891 km
Speed1.694 km/s
True Right ascension00h 46m 37s
True Declination0° 13' 54"
Sunlit
Object was in daylight at TLE epoch
Visualization TLE readout
Latitude10.4444°
Longitude28.86147°
Altitude27,248.65 km
Speed3.005 km/s
Apparent Right ascension01h 38m 20s
Apparent Declination3° 26' 52"
Sunlit
Object is in daylight
Visualization observer readout
Local Sidereal Time08:14:35
Azimuth278.484° WNW
Elevation-4.705°
Doppler factor1
Orbital elements
Apogee altitude40,324.428 km
Perigee altitude1,236.828 km
Semi-major axis27,158.765 km
Eccentricity0.719613
Inclination27.1534°
RAAN12.1026°
Arg. of periapsis171.1007°
True anomaly188.36615°
Mean anomaly214.9945°
Eccentric anomaly200.53296°
Mean motion0.48493 °/min
BSTARUnknown
Orbital period742.38 mins
Loading maneuver chart data...
Loading historical data...
Loading historical data...
Loading historical data...
Loading historical data...
Loading historical data...
Loading historical data...
Loading historical data...

CZ-3B DEB Visibility forecast

Observer location: undefined°, undefined

Span
Click to sort rows by Start time (UTC) header in descending order
Start Az.
Max El. time (UTC)
Max El. Az.
Max El.
End time (UTC)
End Az.
27 mins2024-12-05 12:09:13.875Z274.779° WNW2024-12-05 12:29:13.875Z226.942° WSW24.045°2024-12-05 12:36:13.875Z169.296° S
|